CAPE
1104 1133 1023 276 170 190 617 860 817 393 24 914 179 1134 1226 1661 1677 1503 1722 1305 574 121 163 131 349 566 656 651 564 504 521 622 776 908 945 941 910 928
978 787 989 560 293 321 263 468 631 618 164 21 504 1021 1410 1385 1373 1484 1451 1238 567 422 380 269 111 136 297 372 368 315 305 328 370 472 656 706 687 734
1095 1136 1038 1381 582 544 330 461 254 313 214 103 243 755 2072 1856 1411 1493 1420 1160 858 966 587 427 374 315 245 191 168 198 251 239 282 336 344 419 585 627
1004 1327 1107 1010 1047 835 612 589 324 554 649 385 522 520 1514 1464 1762 1701 1362 667 612 692 535 187 122 45 3 0 0 0 0 0 1 4 110 153 201 323
1272 960 481 706 942 746 679 483 669 897 786 726 574 823 1049 1306 1421 1939 1820 1606 1613 1149 806 403 233 99 13 0 0 0 0 0 0 0 0 0 0 31
1198 825 835 503 315 1074 963 914 591 862 710 773 763 826 953 1270 1447 1265 1230 1482 1279 1390 817 872 589 286 0 0 0 0 0 0 0 0 0 0 0 0
1405 1314 1105 840 557 1027 1084 884 886 1000 807 979 770 626 977 1055 1241 1129 1210 1020 1198 1366 1215 1354 1373 896 448 0 0 0 0 0 0 0 0 0 0 0
1541 1514 1354 1032 838 736 784 728 868 1102 989 706 649 718 833 1146 1030 1186 1247 1204 963 1032 1532 1302 1023 843 301 7 0 0 0 0 0 0 0 0 0 0
1614 1542 1515 1387 1338 1385 853 687 477 646 644 962 1145 1059 933 1114 1174 1448 1359 1682 1560 1305 1307 766 853 629 268 1 0 0 0 0 0 0 0 0 0 0
1604 1546 1484 1425 1427 1320 1413 1299 866 958 837 767 876 1062 1184 1198 1430 1582 1867 1975 1592 1277 1122 749 602 332 59 0 0 0 0 0 0 0 0 0 0 0
1633 1686 1498 1529 1566 1070 1302 1276 1228 1209 1095 987 1039 1061 1091 1045 1247 1568 1489 1471 916 853 994 781 505 128 1 0 0 0 0 0 0 0 0 0 0 0
1717 1783 1510 1473 1345 1102 1256 1243 1159 1126 1158 1107 1286 1126 905 995 532 1066 1121 1309 972 686 868 698 281 33 0 0 0 5 0 0 0 0 0 0 0 0
1115 1153 1375 1223 961 817 983 1192 1108 1186 1076 1110 1207 1233 1162 1355 1298 1080 1251 1290 913 681 811 435 284 3 0 0 0 0 9 7 3 0 0 0 0 0
1236 895 1247 782 691 516 646 892 769 861 1137 1054 1145 1202 1043 999 1166 1238 1282 1257 1143 1120 116 61 155 5 0 0 0 0 5 12 9 6 1 5 0 0
1335 1250 715 484 393 322 259 325 263 773 1152 1115 1088 989 958 1147 1380 1371 1230 588 374 391 191 119 11 0 1 0 0 0 0 2 13 8 7 4 9 4
278 542 364 373 317 275 276 117 503 1112 1061 902 751 466 395 1336 1368 1135 737 243 210 135 2 3 12 9 0 2 8 9 9 7 2 10 9 7 6 9
24 75 62 105 215 290 407 704 796 734 586 432 282 314 486 525 419 384 317 388 201 59 3 7 11 16 14 9 8 1 1 4 3 6 4 6 6 6
1 6 1 3 33 92 78 127 288 233 229 194 293 477 400 303 314 347 292 184 85 16 0 0 8 9 9 11 0 1 3 5 5 5 2 3 2 9
0 1 4 1 61 56 73 108 145 212 222 195 195 189 212 259 253 332 224 83 37 11 2 2 3 9 2 0 0 0 1 4 8 5 5 1 3 12
12 15 19 6 100 176 268 255 272 170 209 179 201 250 263 292 349 227 134 90 38 0 1 2 1 3 1 0 1 6 0 2 12 9 13 4 5 0
11 39 29 21 52 278 344 292 229 154 155 195 210 210 250 300 285 192 158 35 10 1 4 7 2 0 5 10 8 6 4 0 0 11 8 3 5 4
34 28 18 89 260 369 352 367 372 229 250 245 268 251 258 243 202 183 151 112 35 20 17 10 10 9 10 13 4 2 9 13 0 0 0 0 5 10
134 147 100 155 256 347 410 294 305 314 375 423 425 430 415 363 315 231 168 132 90 45 3 5 4 11 13 14 10 8 4 6 13 3 0 0 0 0
CIN
-3 -1 -2 -2 -3 -1 -2 -3 -2 -1 -3 -7 -3 -6 -2 -1 -18 -6 -1 -53 -93 -155 -152 -159 -138 -114 -105 -97 -97 -96 -87 -77 -62 -45 -39 -36 -25 -16
-2 -2 -2 -2 -1 -2 -2 -2 -3 -2 -2 -2 -3 -3 -2 -2 -13 -13 -2 -42 -65 -94 -119 -148 -175 -181 -152 -132 -126 -132 -133 -131 -120 -102 -79 -70 -64 -50
-8 -4 -2 -1 -3 -5 -2 -2 -2 -2 -3 -3 -2 -3 -5 -5 -4 -1 -1 -4 -5 -62 -109 -135 -154 -167 -193 -199 -202 -197 -186 -180 -161 -141 -127 -104 -83 -75
-20 -3 -5 -2 -2 -14 -3 -2 -1 -3 -1 -1 -2 -3 -4 -1 -1 -6 -7 -4 -3 -73 -111 -174 -197 -238 -49 0 0 0 0 0 -7 -11 -173 -137 -122 -98
-8 -32 -60 -25 -6 -6 -4 -4 -2 -2 -2 -2 -2 -3 -2 -2 -2 -4 -2 -1 -1 -23 -63 -139 -187 -234 -232 0 0 0 0 0 0 0 0 0 0 -136
-23 -27 -31 -36 -17 -2 -1 -7 -19 -6 -2 -3 -2 -2 -2 -2 -2 -2 -3 -2 -3 -2 -7 -19 -92 -171 -20 0 0 0 0 0 0 0 0 0 0 0
-1 -2 -13 -34 -50 -5 -3 -13 -6 -3 -3 -2 -3 -2 -2 -2 -2 -3 -3 -4 -3 -2 -2 -2 -2 -10 -38 0 0 0 0 0 0 0 0 0 0 0
-1 -1 -2 -10 -31 -65 -52 -29 -4 -1 -3 -1 -1 -3 -12 -4 -18 -5 -18 -10 -15 -4 -2 -2 -2 -3 -54 -133 0 0 0 0 0 0 0 0 0 0
-1 -2 -1 -4 -19 -3 -57 -44 -34 -21 -25 -10 -5 -8 -6 -6 -12 -8 -3 -2 -7 -4 -4 -17 -3 -6 -39 0 0 0 0 0 0 0 0 0 0 0
-3 -1 -1 -2 -1 -3 -1 -2 -9 -3 -25 -26 -27 -36 -1 -2 -1 -1 -1 0 -4 -5 -12 -65 -48 -88 -158 0 0 0 0 0 0 0 0 0 0 0
-8 -2 -3 -2 -2 -10 -1 -1 -1 -2 -8 -22 -25 -8 -15 -26 -12 -2 -1 0 -3 -2 -25 -36 -50 -121 -5 0 0 0 0 0 0 0 0 0 0 0
0 -2 -4 -2 -2 -22 -6 -1 0 -1 -3 -2 -6 -17 -50 -30 -63 -18 -3 -1 -2 -3 -5 -44 -90 -109 0 0 0 -2 -1 0 0 0 0 0 0 0
-4 -6 -6 -24 -16 -30 -31 -2 -2 -3 -3 -2 -7 -4 -3 -3 -4 -26 -3 -1 -2 -2 -11 -22 -27 -25 0 0 0 0 -2 -4 -1 0 0 0 0 0
-1 -12 -2 -31 -47 -61 -52 -19 -15 -20 -5 -2 -3 -4 -8 -2 -2 -5 -4 -2 -2 -1 -119 -146 -50 -80 0 0 0 0 -1 -2 -1 -1 -1 -2 -9 0
-5 -6 -52 -88 -85 -102 -120 -94 -84 -4 -1 0 -1 -2 -4 -7 -10 -14 -3 -49 -56 -21 -57 -100 -120 0 -2 0 0 0 0 -1 -1 0 -1 -1 0 0
-83 -42 -94 -86 -76 -91 -86 -182 -42 -1 -1 -4 -3 -16 -14 -5 -4 -2 -7 -87 -68 -46 -1 0 0 0 -1 -1 -2 -1 -2 -1 -1 -1 -1 -1 -1 0
-99 -125 -175 -111 -51 -47 -26 -10 -5 -6 -10 -65 -80 -74 -56 -48 -79 -56 -59 -26 -51 -91 -12 -1 0 0 -1 -1 -2 -1 -1 -1 -1 -1 0 -1 -1 -1
-1 0 -99 -129 -135 -119 -61 -28 -26 -61 -66 -97 -91 -40 -60 -74 -85 -69 -86 -102 -104 -107 -1 -1 -1 -1 -1 -1 -1 -2 -2 -1 -1 -1 0 0 -2 -1
-13 0 0 -20 -60 -118 -64 -29 -23 -19 -61 -70 -79 -95 -111 -111 -105 -98 -84 -111 -99 -112 -3 -3 -2 -2 -1 0 0 0 -1 -2 -1 0 -1 -1 0 -2
0 -2 -2 -33 -68 -36 -2 -2 -3 -25 -46 -93 -98 -51 -59 -48 -35 -56 -64 -93 -126 -14 -1 -3 -1 -2 0 0 -1 -2 0 -2 -3 -1 0 -1 -1 0
-8 -1 -10 -15 -26 -18 -2 -2 -27 -51 -42 -25 -42 -35 -21 -9 -15 -19 -20 -78 -40 -1 -1 -2 -3 0 -2 -1 -1 -1 -3 0 0 -5 -1 0 0 0
-48 -51 -50 -12 -8 -7 -8 -29 -42 -78 -72 -68 -48 -37 -13 -4 -3 -2 -3 -4 -30 -71 -57 -2 -2 -4 -2 -1 -1 -2 -1 -7 0 0 0 0 -1 0
-48 -34 -57 -30 -16 -11 -8 -57 -51 -38 -25 -5 -2 -3 -1 -3 -2 -1 -2 -1 -1 -6 -2 -2 -1 -1 -1 -1 -1 -1 -2 -1 -1 -3 -16 0 0 0
Wind_Speed
21 21 24 25 22 22 19 19 17 24 18 11 11 10 12 11 12 11 14 11 9 9 6 3 4 7 9 10 8 8 7 8 8 9 8 10 8 7
14 19 22 24 23 23 22 20 16 20 23 16 12 12 13 13 10 15 15 14 4 8 8 8 4 4 4 3 5 6 7 8 8 11 11 11 10 12
13 18 15 19 27 26 21 22 20 19 18 15 17 14 12 12 17 18 16 15 13 7 13 14 12 11 11 10 8 7 6 7 9 10 12 13 13 12
11 15 21 21 24 28 28 23 23 24 25 25 22 21 11 11 13 17 19 18 21 11 13 14 14 15 15 17 18 19 19 16 14 13 13 14 14 14
13 13 14 14 32 31 27 28 22 19 20 22 28 20 18 17 14 13 17 19 20 14 16 14 13 16 18 23 28 29 27 25 21 20 19 17 17 17
13 13 12 13 35 29 27 24 25 24 25 27 29 26 23 19 18 21 21 16 19 20 23 18 17 17 18 23 29 28 29 29 28 26 22 19 19 19
13 12 12 14 18 12 18 17 18 15 22 22 25 25 20 20 22 23 23 23 24 22 23 22 21 23 25 20 27 27 29 28 29 28 27 19 12 9
14 14 11 8 13 17 17 14 15 12 19 24 26 25 29 27 24 28 27 27 26 25 21 26 27 28 31 29 27 30 30 28 28 28 29 28 19 7
12 16 10 10 11 12 14 14 14 14 18 21 22 30 31 27 26 26 24 23 23 27 24 29 29 30 28 28 24 26 27 27 29 28 30 31 28 19
13 11 12 11 12 10 12 12 13 14 14 17 17 18 22 24 23 24 25 24 24 21 19 23 24 25 25 24 20 23 23 24 26 30 30 31 32 26
18 21 19 18 17 14 14 15 15 15 14 14 13 20 22 24 23 22 23 25 26 24 18 19 25 25 25 23 20 19 17 17 21 31 31 31 31 31
17 24 25 28 23 17 17 17 18 20 22 20 18 23 25 26 23 20 24 24 26 27 20 16 21 24 28 21 23 21 18 13 19 23 26 27 28 27
20 20 23 21 25 21 17 20 21 25 25 26 26 28 28 26 21 20 19 19 22 23 18 15 24 23 24 26 26 26 25 26 26 26 21 20 26 22
24 24 24 21 19 21 22 23 27 26 28 27 28 26 25 25 22 16 14 16 20 24 19 20 24 27 28 29 29 26 26 25 27 26 24 26 20 21
30 28 25 24 21 22 22 24 25 25 25 25 27 26 21 22 23 22 18 20 22 22 20 20 22 24 25 27 27 29 30 25 28 25 27 25 24 24
30 27 27 24 25 24 22 23 24 24 21 23 26 26 23 23 20 19 20 21 22 21 16 17 18 19 24 25 29 30 30 28 27 30 30 27 21 20
28 28 26 23 24 25 25 26 24 24 25 25 29 29 26 24 23 23 21 19 18 21 16 12 11 13 16 20 22 21 23 25 27 28 24 25 21 20
25 24 25 25 25 30 28 26 24 21 21 28 28 26 24 23 20 17 15 15 15 14 13 9 8 12 14 14 11 18 21 23 22 23 25 25 24 18
32 35 27 29 25 23 28 26 23 22 23 25 25 23 23 21 21 19 16 16 18 16 14 12 12 14 15 16 15 6 24 21 21 22 21 21 23 21
22 38 39 35 30 26 28 27 25 26 24 24 24 24 24 24 22 22 21 20 19 18 17 16 15 13 14 17 18 21 10 23 18 20 24 23 22 25
21 22 25 30 33 30 29 27 26 25 25 25 25 26 25 25 26 26 26 25 23 20 20 19 18 17 19 19 20 21 20 10 18 19 19 21 25 26
19 17 18 22 25 30 27 27 26 25 26 27 27 26 26 27 28 28 27 28 25 24 24 23 19 16 18 17 21 22 21 15 16 18 17 17 21 23
27 26 25 28 29 27 26 24 24 24 23 24 25 26 26 27 27 27 28 29 28 25 22 21 20 18 21 20 22 23 21 20 19 17 17 8 9 11
Wind_Direction
292 293 292 293 295 295 301 304 311 300 318 356 357 4 350 358 349 353 339 357 8 6 25 83 155 173 188 195 195 201 207 214 223 222 227 218 225 277
295 291 289 289 290 292 292 298 307 306 301 318 348 348 346 347 355 336 337 338 19 3 9 8 51 141 162 184 207 217 223 226 230 228 231 236 239 230
285 293 290 289 282 284 292 294 298 302 305 312 314 328 338 340 326 326 331 336 340 4 346 343 352 354 351 350 346 331 295 265 257 252 246 248 246 249
238 284 288 288 281 277 279 288 292 294 294 296 304 308 329 331 330 325 322 323 312 347 344 340 341 340 340 338 335 331 325 319 308 297 286 277 267 260
241 263 274 278 271 269 275 279 289 295 297 298 290 306 312 316 324 329 321 317 315 329 330 336 340 338 338 333 327 326 324 321 318 313 306 295 289 282
251 245 255 246 264 262 270 278 282 288 289 288 285 295 302 307 311 309 310 319 318 318 318 327 334 336 338 337 332 332 328 327 326 322 318 312 301 289
232 231 222 200 192 236 273 277 283 288 288 290 292 294 302 301 297 302 304 307 309 319 319 324 329 329 330 340 337 340 334 334 331 328 325 323 309 280
222 217 217 223 208 207 211 260 277 273 285 287 289 293 290 291 297 293 297 300 306 312 320 317 319 320 323 330 336 335 337 337 333 331 326 323 326 289
231 214 229 253 235 243 240 234 244 266 279 288 289 286 287 293 297 299 304 306 305 305 318 314 317 318 325 331 340 342 343 339 334 332 324 318 320 328
269 254 235 261 269 255 258 257 247 258 261 276 280 286 293 296 300 301 303 304 306 313 317 319 323 326 331 335 344 350 347 344 339 328 323 315 311 323
274 279 275 274 275 263 270 271 271 275 274 270 272 288 292 294 297 302 302 302 304 310 316 316 321 324 328 331 340 349 352 352 346 324 322 320 321 319
264 277 275 275 275 268 268 272 275 279 282 286 285 287 289 291 292 291 295 298 302 305 310 311 321 325 326 332 334 340 348 353 349 343 337 334 329 329
263 270 276 270 268 269 262 273 276 282 283 284 286 287 288 291 292 291 289 293 301 304 310 311 319 322 320 321 325 329 334 332 332 336 344 349 343 342
263 266 273 272 265 264 268 273 277 281 282 284 286 290 292 294 294 289 291 299 304 306 313 309 313 315 314 315 316 322 326 329 326 331 337 338 349 351
263 266 268 271 270 272 271 274 277 280 281 284 285 289 295 298 298 301 301 304 304 307 306 305 308 312 312 311 313 313 317 325 321 327 331 338 338 341
259 259 262 264 267 274 273 277 279 278 278 281 283 288 295 295 297 298 301 304 306 309 310 311 308 310 309 312 310 311 310 312 315 313 314 326 339 346
257 255 254 254 261 268 275 274 275 276 278 279 280 284 289 293 295 298 301 304 305 312 315 327 322 316 316 315 313 313 311 310 308 310 321 322 333 337
265 248 245 248 260 266 271 273 274 276 278 277 280 283 287 291 296 299 300 303 307 313 317 322 329 328 325 320 311 316 309 310 313 315 313 316 322 337
254 256 251 245 251 272 271 273 274 274 274 276 282 284 287 291 295 297 299 303 306 311 313 317 315 320 321 321 336 325 303 311 314 314 315 319 320 324
270 254 252 253 261 271 270 271 273 272 275 279 282 285 288 291 292 295 295 297 301 304 306 306 307 308 310 314 318 315 318 309 315 317 313 316 319 317
299 278 259 255 251 257 264 268 270 273 277 281 285 288 290 291 292 293 295 294 296 297 297 300 302 306 308 312 311 311 312 310 314 315 320 318 316 317
294 297 276 262 251 250 259 265 272 278 282 284 287 291 292 292 292 293 294 293 293 292 294 298 305 303 301 296 302 306 308 320 320 315 312 315 318 319
265 264 266 261 261 266 269 275 280 283 287 289 290 291 294 295 295 296 297 295 293 291 288 290 292 293 296 294 295 299 303 306 311 315 317 308 310 315